This demonstration page uses our WeatherBlox Daily Observations layout. Learn more.

Left ArrowRight Arrow

41.12389, -100.76542

Hourly Observations for October 24, 2021

Temp ( °F °C ) Dew Point ( °F °C ) Humidity (%) Winds ( mph kmh ) Pressure ( in mb ) Visibility ( mi km ) Precip ( " mm )
12:53 am 00:53 Cloudy 50 10 43 6.1 77 77 N 6 9 29.75 1007 10 16 N/A
1:53 am 01:53 Cloudy 50 10 43 6.1 77 77 NNW 3 6 29.75 1008 10 16 N/A
2:53 am 02:53 Cloudy 49 9.4 44 6.7 83 83 NNW 6 9 29.72 1007 10 16 N/A
3:53 am 03:53 Mostly Cloudy 48 8.9 43 6.1 83 83 NNW 7 11 29.70 1006 10 16 N/A
4:00 am 04:00 Partly Cloudy 48 8.9 43 6.1 83 83 NW 6 9 29.73 1007 10 16 N/A
4:53 am 04:53 Clear 47 8.3 42 5.6 83 83 NNE 7 11 29.67 1005 10 16 N/A
5:53 am 05:53 Clear 46 7.8 42 5.6 86 86 NW 8 13 29.71 1006 10 16 N/A
6:53 am 06:53 Clear 45 7.2 42 5.6 90 90 NW 6 9 29.73 1007 10 16 N/A
7:53 am 07:53 Clear 43 6.1 41 5 93 93 WNW 3 6 29.75 1008 10 16 N/A
8:53 am 08:53 Mostly Sunny 44 6.7 40 4.4 85 85 N N/A 29.78 1008 10 16 N/A
9:53 am 09:53 Partly Cloudy 47 8.3 43 6.1 86 86 W 10 17 29.80 1009 10 16 N/A
10:37 am 10:37 Mostly Sunny 49 9.4 43 6.1 80 80 WNW 15 24 29.80 1009 10 16 N/A
10:53 am 10:53 Mostly Cloudy 48 8.9 44 6.7 86 86 WNW 10 17 29.80 1009 10 16 N/A
11:34 am 11:34 Partly Cloudy 55 12.8 46 7.8 72 72 WNW 12 19 29.75 1008 10 16 N/A
11:53 am 11:53 Sunny 57 13.9 47 8.3 69 69 WNW 12 19 29.78 1008 10 16 N/A
12:53 pm 12:53 Sunny 62 16.7 46 7.8 56 56 NNW 17 28 29.76 1008 10 16 N/A
1:53 pm 13:53 Mostly Sunny 61 16.1 42 5.6 50 50 NNW 22 35 29.77 1008 10 16 N/A
2:53 pm 14:53 Mostly Sunny 59 15 42 5.6 54 54 NNW 18 30 29.79 1009 10 16 N/A
3:53 pm 15:53 Sunny 62 16.7 42 5.6 48 48 NNW 16 26 29.80 1009 10 16 N/A
4:53 pm 16:53 Partly Cloudy 62 16.7 40 4.4 44 44 NW 17 28 29.82 1010 10 16 N/A
5:53 pm 17:53 Sunny 60 15.6 39 3.9 46 46 NW 17 28 29.85 1011 10 16 N/A
6:53 pm 18:53 Clear 55 12.8 37 2.8 51 51 NNW 10 17 29.90 1012 10 16 N/A
7:53 pm 19:53 Clear 47 8.3 36 2.2 66 66 NW 6 9 29.95 1014 10 16 N/A
8:53 pm 20:53 Clear 48 8.9 37 2.8 66 66 N 9 15 29.96 1014 10 16 N/A
9:53 pm 21:53 Clear 45 7.2 36 2.2 71 71 NE 5 7 29.96 1014 10 16 N/A
10:53 pm 22:53 Clear 37 2.8 32 undefined 82 82 N N/A 30.00 1016 10 16 N/A
11:53 pm 23:53 Clear 38 3.3 33 0.6 83 83 N N/A 30.01 1016 10 16 N/A

Powered by AerisWeather